OE3MNS-13 Weather Reports


Display with metric or nautical units.
time (UTC)temp
F
wind
direction
speed
MPH
gust
MPH
rain 1hr
in
rain 24hr
in
rain mn
in
humidity
%
barometer
mb
20260905215520 67 276 3.0 7.0 0.00 0.04 0.04 64 1022.9
20260905214519 67 271 4.0 11.0 0.00 0.04 0.04 63 1022.8
20260905213519 67 271 4.0 12.0 0.00 0.04 0.04 63 1022.7
20260905212518 67 253 4.0 9.0 0.00 0.04 0.04 63 1022.7
20260905211518 67 263 3.0 9.0 0.00 0.04 0.04 63 1022.6
20260905210524 67 274 3.0 12.0 0.00 0.04 0.04 63 1022.5
20260905205519 67 276 4.0 11.0 0.00 0.04 0.04 62 1022.3
20260905204520 67 266 4.0 11.0 0.00 0.04 0.04 61 1022.6
20260905203517 67 269 4.0 9.0 0.00 0.04 0.04 61 1022.4
20260905202558 67 275 4.0 11.0 0.00 0.04 0.04 62 1022.2
20260905201517 68 284 4.0 10.0 0.00 0.04 0.04 61 1022.2
20260905200539 68 272 5.0 9.0 0.00 0.04 0.04 60 1022.2
20260905195519 68 281 3.0 9.0 0.00 0.04 0.04 60 1022.2
20260905194519 69 275 4.0 10.0 0.00 0.04 0.04 60 1022.0
20260905193520 69 276 4.0 10.0 0.00 0.04 0.04 59 1022.0
20260905192519 69 282 3.0 11.0 0.00 0.04 0.04 59 1021.9
20260905191518 69 273 4.0 9.0 0.00 0.04 0.04 60 1021.8
20260905190519 69 273 3.0 9.0 0.00 0.04 0.04 60 1021.7
20260905185519 69 274 3.0 7.0 0.00 0.04 0.04 61 1021.6
20260905184517 69 278 3.0 10.0 0.00 0.04 0.04 60 1021.6
20260905183521 69 285 4.0 11.0 0.00 0.04 0.04 60 1021.3
20260905182519 69 284 4.0 10.0 0.00 0.04 0.04 59 1021.2
20260905181520 70 277 2.0 7.0 0.00 0.04 0.04 58 1021.1
20260905180517 70 278 4.0 9.0 0.00 0.04 0.04 57 1021.0
20260905175544 70 286 5.0 11.0 0.00 0.04 0.04 56 1020.7
20260905174516 71 284 6.0 13.0 0.00 0.04 0.04 56 1020.7
20260905173533 71 278 4.0 9.0 0.00 0.04 0.04 55 1020.4
20260905172518 71 280 4.0 16.0 0.00 0.04 0.04 54 1020.3
20260905171517 72 273 5.0 18.0 0.00 0.04 0.04 53 1020.2
20260905170520 72 276 5.0 14.0 0.00 0.04 0.04 52 1020.4
20260905165539 73 279 6.0 16.0 0.00 0.04 0.04 52 1020.2
20260905164517 73 275 5.0 14.0 0.00 0.04 0.04 51 1020.1
20260905163519 73 280 6.0 14.0 0.00 0.04 0.04 50 1020.0
20260905162518 73 271 5.0 10.0 0.00 0.04 0.04 49 1019.9
20260905161517 74 273 7.0 22.0 0.00 0.04 0.04 49 1019.9
20260905160519 74 270 6.0 22.0 0.00 0.04 0.04 48 1019.8
20260905155519 74 277 7.0 17.0 0.00 0.04 0.04 48 1019.8
20260905154519 75 263 5.0 16.0 0.00 0.04 0.04 48 1019.8
20260905153519 75 273 8.0 21.0 0.00 0.04 0.04 47 1019.8
20260905152518 76 269 5.0 15.0 0.00 0.04 0.04 47 1019.8
20260905151518 75 272 7.0 18.0 0.00 0.04 0.04 48 1019.8
20260905150518 75 280 7.0 17.0 0.00 0.04 0.04 48 1019.8
20260905145518 75 271 7.0 17.0 0.00 0.04 0.04 48 1019.7
20260905144539 75 277 9.0 21.0 0.00 0.04 0.04 48 1019.8
20260905143519 75 264 6.0 15.0 0.00 0.04 0.04 49 1019.7
20260905142518 75 282 8.0 22.0 0.00 0.04 0.04 49 1019.8
20260905141600 75 273 7.0 21.0 0.00 0.04 0.04 49 1019.9
20260905140540 75 265 5.0 12.0 0.00 0.04 0.04 50 1019.8
20260905135517 75 273 8.0 20.0 0.00 0.04 0.04 51 1019.8
20260905134518 74 266 5.0 16.0 0.00 0.04 0.04 52 1020.1
20260905133520 74 272 5.0 16.0 0.00 0.04 0.04 51 1020.1
20260905132519 74 274 8.0 29.0 0.00 0.04 0.04 51 1020.2
20260905131517 74 267 6.0 21.0 0.00 0.04 0.04 52 1020.3
20260905130518 74 269 6.0 15.0 0.00 0.04 0.04 52 1020.3
20260905125524 74 282 7.0 19.0 0.00 0.04 0.04 52 1020.3
20260905124540 74 280 6.0 16.0 0.00 0.04 0.04 52 1020.5
20260905123540 74 277 7.0 17.0 0.00 0.04 0.04 53 1020.5
20260905122538 74 267 6.0 20.0 0.00 0.04 0.04 53 1020.6
20260905121520 73 268 5.0 13.0 0.00 0.04 0.04 54 1020.5
20260905120518 73 254 7.0 17.0 0.00 0.04 0.04 54 1020.4
20260905115519 73 260 6.0 16.0 0.00 0.04 0.04 56 1020.4
20260905114520 72 254 7.0 20.0 0.00 0.04 0.04 57 1020.7
20260905113518 72 256 6.0 16.0 0.00 0.04 0.04 57 1020.6
20260905112603 71 251 5.0 12.0 0.00 0.04 0.04 57 1020.6
20260905111518 71 261 4.0 13.0 0.00 0.04 0.04 59 1020.6
20260905110521 70 256 6.0 14.0 0.00 0.04 0.04 61 1020.6
20260905105518 70 268 8.0 20.0 0.00 0.04 0.04 63 1020.6
20260905104520 70 277 8.0 21.0 0.00 0.04 0.04 66 1020.6
20260905103520 69 279 7.0 20.0 0.00 0.04 0.04 69 1020.5
20260905102518 67 273 6.0 21.0 0.00 0.04 0.04 74 1020.6
20260905101518 66 271 6.0 13.0 0.00 0.04 0.04 75 1020.7
20260905100519 66 274 6.0 17.0 0.00 0.04 0.04 75 1020.8
20260905095519 65 276 5.0 15.0 0.00 0.04 0.04 77 1020.7
20260905094517 65 267 5.0 16.0 0.00 0.04 0.04 77 1020.6
20260905093520 65 270 5.0 13.0 0.00 0.04 0.04 78 1020.7
20260905092517 65 267 4.0 11.0 0.00 0.04 0.04 79 1020.7
20260905091557 64 267 3.0 9.0 0.00 0.04 0.04 80 1020.7
20260905090520 64 261 4.0 9.0 0.02 0.04 0.04 80 1020.6
20260905085519 63 252 4.0 13.0 0.03 0.04 0.04 80 1020.6
20260905084518 62 226 3.0 6.0 0.03 0.04 0.04 83 1020.6
20260905083517 62 213 5.0 10.0 0.03 0.04 0.04 83 1020.6
20260905082519 61 237 1.0 4.0 0.03 0.04 0.04 84 1020.9
20260905081518 61 255 2.0 7.0 0.02 0.03 0.03 81 1021.1
20260905080517 62 260 2.0 6.0 0.01 0.02 0.02 77 1021.3
20260905075518 63 290 2.0 8.0 0.00 0.01 0.01 75 1021.1
20260905074517 62 241 2.0 6.0 0.00 0.01 0.01 75 1021.3
20260905073541 62 250 2.0 7.0 0.00 0.01 0.01 77 1021.4
20260905072519 61 263 1.0 4.0 0.00 0.01 0.01 78 1021.0
20260905071537 61 266 2.0 5.0 0.00 0.01 0.01 79 1021.4
20260905070519 61 264 2.0 6.0 0.01 0.01 0.01 82 1021.2
20260905065558 61 226 2.0 6.0 0.01 0.01 0.01 81 1020.5
20260905064519 61 298 1.0 4.0 0.01 0.01 0.01 81 1020.6
20260905063519 61 275 2.0 9.0 0.00 0.00 0.00 77 1021.3
20260905062517 62 240 2.0 5.0 0.00 0.00 0.00 76 1021.0
20260905061517 62 306 2.0 7.0 0.00 0.00 0.00 75 1020.1
20260905060517 64 336 7.0 13.0 0.00 0.00 0.00 70 1020.3
20260905055520 65 352 7.0 13.0 0.00 0.00 0.00 63 1020.1
20260905054540 66 337 11.0 20.0 0.00 0.00 0.00 59 1020.1
20260905053538 66 346 5.0 11.0 0.00 0.00 0.00 61 1019.3
20260905052538 66 336 5.0 8.0 0.00 0.00 0.00 60 1019.3
20260905051518 66 349 4.0 7.0 0.00 0.00 0.00 61 1018.4
20260905050517 66 350 6.0 11.0 0.00 0.00 0.00 63 1018.3
20260905045558 66 351 4.0 9.0 0.00 0.00 0.00 65 1017.9
20260905044520 66 335 3.0 6.0 0.00 0.00 0.00 68 1017.7
20260905043518 66 353 1.0 4.0 0.00 0.00 0.00 70 1017.5
20260905042537 67 29 2.0 5.0 0.00 0.00 0.00 70 1017.7
20260905041519 67 345 2.0 4.0 0.00 0.00 0.00 68 1017.8
20260905040520 68 351 2.0 4.0 0.00 0.00 0.00 65 1017.6
20260905035520 68 4 2.0 7.0 0.00 0.00 0.00 64 1017.2
20260905034537 69 346 5.0 12.0 0.00 0.00 0.00 62 1017.3
20260905033519 70 351 5.0 13.0 0.00 0.00 0.00 64 1017.2
20260905032519 71 349 7.0 13.0 0.00 0.00 0.00 57 1017.1
20260905031519 73 355 11.0 22.0 0.00 0.00 0.00 57 1016.2
20260905030519 74 341 7.0 21.0 0.00 0.00 0.00 56 1015.9
20260905025517 75 246 4.0 9.0 0.00 0.00 0.00 54 1014.5
20260905024539 77 241 6.0 14.0 0.00 0.00 0.00 49 1014.6
20260905023517 76 265 4.0 10.0 0.00 0.00 0.00 47 1014.3
20260905022519 76 265 4.0 12.0 0.00 0.00 0.00 48 1014.0
20260905021517 76 249 2.0 6.0 0.00 0.00 0.00 48 1014.0
20260905020517 75 258 3.0 9.0 0.00 0.00 0.00 49 1013.9
20260905015518 76 299 3.0 11.0 0.00 0.00 0.00 48 1014.3
20260905014519 76 257 3.0 11.0 0.00 0.00 0.00 48 1013.8
20260905013539 76 282 4.0 10.0 0.00 0.00 0.00 48 1013.8
20260905012518 76 282 4.0 10.0 0.00 0.00 0.00 47 1013.8
20260905011538 76 269 3.0 8.0 0.00 0.00 0.00 47 1013.7
20260905010517 76 260 3.0 8.0 0.00 0.00 0.00 47 1013.6
20260905005519 75 259 3.0 7.0 0.00 0.00 0.00 48 1013.4
20260905004517 75 236 2.0 7.0 0.00 0.00 0.00 48 1013.5
20260905003517 75 233 3.0 7.0 0.00 0.00 0.00 48 1013.6
20260905002520 75 236 2.0 6.0 0.00 0.00 0.00 48 1013.5
20260905001517 75 231 4.0 9.0 0.00 0.00 0.00 48 1013.5
20260905000519 75 245 2.0 5.0 0.00 0.00 0.00 48 1013.3
20260904235519 74 227 4.0 9.0 0.00 0.00 0.00 50 1013.2
20260904234538 73 256 2.0 4.0 0.00 0.00 0.00 51 1013.2
20260904233540 73 241 2.0 5.0 0.00 0.00 0.00 52 1013.2
20260904232539 71 257 1.0 6.0 0.00 0.00 0.00 55 1013.1
20260904231518 68 233 2.0 5.0 0.00 0.00 0.00 61 1013.2
20260904230520 67 252 1.0 3.0 0.00 0.00 0.00 66 1013.1
20260904225518 66 324 0.0 1.0 0.00 0.00 0.00 67 1013.1
20260904224518 66 300 0.0 2.0 0.00 0.00 0.00 67 1012.9
20260904223519 66 0.0 0.0 0.00 0.00 0.00 67 1012.8
20260904222520 66 113 0.0 2.0 0.00 0.00 0.00 67 1012.8
20260904221517 66 72 0.0 1.0 0.00 0.00 0.00 66 1012.9
20260904220519 67 0.0 0.0 0.00 0.00 0.00 66 1012.8